SCP
0 0 0 0 0 0 0 0 0 0 0 0 0 0 0 0 0 0 0 0 0 0 0 0 0 0 0 0 0 0 0 0 0 0 -0 -0 -0 0
0 0 0 0 0 0 0 0 0 0 0 0 0 0 0 0 0 0 0 0 0 0 0 0 0 0 0 0 0 0 0 0 -0 -0 0 -0 -0 0
0 0 0 0 0 0 0 0 0 0 0 0 0 0 0 0 0 0 0 0 0 0 0 0 0 0 0 0 0 0 0 0 0 -0 -0 -0 -0 -0
0 0 0 0 0 0 0 0 0 0 0 0 0 0 0 0 0 0 0 0 0 0 0 0 0 0 0 0 0 0 0 0 0 0 -0 0 -0 -0
0 0 0 0 0 0 0 0 0 0 0 0 0 0 0 0 0 0 0 0 0 -0 0 0 0 0 0 0 0 0 0 0 0 0 -0 -0 -0 -0
0 0 0 0 0 0 0 0 0 0 0 0 0 0 0 0 0 0 0 0 0 0 0 0 0 0 0 0 0 0 0 0 0 0 0 -0 -0 -0
0 0 0 0 0 0 0 0 0 0 0 0 0 0 0 0 0 0 0 0 0 0 0 0 0 0 0 0 0 0 0 0 0 0 0 0 0 -0
0 0 0 0 0 0 0 0 0 0 0 0 0 0 0 0 0 0 0 0 0 0 0 0 0 0 0 0 0 0 0 0 0 0 0 0 0 -0
0 0 0 0 0 0 0 0 0 0 0 0 0 0 0 0 0 0 0 0 0 0 0 0 0 0 0 0 0 -0 0 0 0 0 0 0 0 0
0 0 0 0 0 0 0 0 0 0 0 0 0 0 0 0 0 0 0 0 0 0 0 0 0 0 0 0 0 0 0 0 0 0 0 0 0 0
0 0 0 0 0 0 0 0 0 0 0 -0 0 0 0 0 0 0 0 0 0 0 0 0 0 0 0 0 0 0 0 0 0 0 0 0 0 0
0 0 0 0 0 0 0 0 0 0 0 0 -0 0 0 0 0 0 0 0 0 0 0 0 0 0 0 0 0 0 0 0 0 0 0 0 0 0
0 0 0 0 0 0 0 0 -0 -0 -0 -0 -0 -0 0 0 0 0 0 0 0 0 0 0 0 0 0 0 0 0 0 0 0 0 0 0 0 0
0 0 0 0 0 0 0 0 -0 -0 0 -0 -0 -0 -0 0 0 0 0 0 0 0 0 0 0 0 0 0 0 0 0 0 0 0 0 0 0 0
0 0 0 0 0 0 0 0 -0 0 -0 -0 -0 0 0 0 0 0 0 0 -0 0 0 0 0 0 0 0 0 0 0 0 0 0 0 0 0 0
0 0 0 0 -0 -0 0 0 0 0 0 0 0 0 0 0 0 0 0 0 0 0 0 0 0 0 0 -0 0 0 0 0 0 0 0 0 0 0
0 0 0 0 0 0 0 0 0 0 0 0 0 0 0 0 0 0 0 0 0 0 0 -0 0 0 0 0 0 -0 0 0 0 0 0 0 0 0
0 0 -0 -0 0 0 0 0 0 0 0 0 0 0 0 0 0 0 0 0 0 0 -0 0 0 0 0 0 0 -0 0 0 0 0 0 0 0 0
-0 -0 -0 -0 0 0 0 0 0 0 0 0 0 0 0 0 0 0 0 0 0 -0 -0 -0 0 0 0 0 0 -0 0 0 0 -0 0 0 0 0
-0 0 0 0 0 0 0 0 0 0 0 0 0 0 0 0 0 0 0 -0 -0 -0 -0 -0 0 0 0 0 0 0 0 0 0 0 0 0 0 0
0 0 0 -0 -0 -0 -0 -0 -0 0 0 0 0 0 0 0 0 0 0 -0 -0 -0 -0 0 0 0 -0 0 0 0 0 -0 0 0 0 0 0 0
0 0 0 -0 -0 -0 -0 -0 -0 0 0 0 0 0 0 0 0 0 -0 -0 -0 -0 -0 0 -0 -0 0 0 0 0 0 0 0 0 -0 0 0 0
0 -0 -0 -0 -0 -0 -0 0 -0 0 0 0 0 0 0 0 0 0 0 0 -0 -0 -0 -0 0 -0 -0 0 0 0 0 0 0 0 0 -0 -0 -0
Wind_Speed_500mb
21 25 26 25 26 26 30 32 39 48 46 40 51 53 53 53 53 61 65 65 70 72 73 69 61 59 59 53 59 82 92 87 81 77 68 59 65 59
23 24 29 27 27 26 30 30 31 39 49 46 52 57 68 68 61 60 62 62 60 60 60 56 53 60 65 61 55 60 74 89 97 96 81 71 65 57
26 26 27 30 37 39 39 31 30 34 49 56 58 64 67 62 60 64 62 59 57 58 60 53 55 62 65 64 61 59 64 71 85 102 103 82 72 63
28 30 28 29 39 35 31 34 40 48 50 60 68 57 61 60 65 61 60 59 54 52 51 53 49 47 53 59 64 65 65 68 71 83 104 100 86 73
29 29 29 32 37 32 36 42 40 41 43 52 67 60 55 58 61 62 63 63 53 46 50 55 52 52 60 54 52 57 59 60 65 70 77 89 96 90
30 31 28 31 33 39 47 35 41 48 51 55 59 62 66 67 58 67 72 66 65 56 57 50 45 48 44 51 56 60 57 53 54 58 65 70 90 97
27 27 28 35 40 41 45 49 48 50 52 58 64 69 70 72 70 65 71 69 70 66 63 44 37 43 48 47 49 54 51 52 60 54 60 65 79 93
28 27 38 22 37 49 39 40 42 45 57 59 64 64 72 64 71 70 73 65 64 63 44 61 47 52 44 43 47 54 60 59 68 61 55 57 69 75
27 35 35 26 36 33 38 37 36 37 41 51 60 59 67 69 64 68 60 56 56 64 62 67 52 43 39 41 53 55 52 56 50 50 52 49 58 69
28 33 27 26 32 36 39 36 36 35 41 48 52 60 62 55 51 52 54 58 58 58 51 51 47 39 39 39 50 50 40 47 44 44 42 47 59 60
20 19 24 26 36 37 40 37 42 41 47 52 59 65 61 50 37 45 46 51 57 60 50 47 50 40 42 38 39 41 43 41 36 33 35 43 52 55
15 19 23 30 36 34 40 38 50 53 57 59 60 62 56 51 37 34 39 40 49 55 35 32 31 30 31 29 37 39 39 34 28 25 30 43 51 48
14 17 18 26 32 34 39 41 53 56 51 54 61 61 61 55 54 48 37 37 41 51 58 44 47 41 36 38 42 39 42 36 23 21 33 39 40 39
20 24 28 31 33 37 36 43 47 50 52 60 69 66 73 73 72 62 45 36 37 44 42 41 41 38 37 44 51 43 39 29 19 16 32 34 38 34
26 26 31 35 42 40 37 42 43 40 46 53 70 78 78 75 71 54 42 34 40 38 38 29 36 41 42 40 45 46 42 42 23 13 24 41 34 36
25 36 44 43 41 43 41 40 36 40 44 49 76 87 79 77 71 53 46 37 38 37 29 29 28 28 33 36 37 45 38 35 34 13 19 32 31 36
35 27 27 32 37 38 39 40 42 45 48 52 90 93 88 84 73 55 46 38 38 37 31 28 31 25 28 35 35 39 41 40 19 16 24 16 26 37
29 32 35 37 40 44 45 47 48 50 53 54 88 90 91 86 75 59 50 45 43 35 32 30 24 21 21 25 29 36 29 2 10 9 13 21 26 28
34 35 37 40 43 44 46 48 51 53 55 56 89 95 98 89 76 65 58 54 48 36 30 22 14 16 23 24 27 17 11 16 9 8 11 18 25 28
39 40 41 42 44 46 47 50 52 56 62 69 86 97 103 96 85 74 68 60 49 37 32 16 4 11 19 20 12 3 4 7 12 10 8 13 22 22
40 40 41 42 44 46 47 50 53 62 68 75 84 97 105 108 98 82 72 60 55 48 37 19 7 6 5 17 16 5 8 9 8 10 17 15 15 18
38 39 40 43 45 46 49 52 55 63 75 80 87 89 103 110 104 90 74 62 60 46 26 10 6 1 8 25 25 3 10 13 13 13 15 15 18 16
38 38 39 42 45 46 50 53 55 65 77 80 84 82 94 108 106 95 73 62 52 29 22 8 6 10 21 20 4 11 15 16 17 15 21 18 14 19
Wind_Direction_500mb
289 305 294 296 294 291 291 290 294 301 302 304 305 308 303 299 292 290 295 295 288 285 289 289 285 288 286 281 266 257 254 250 250 250 247 243 247 249
303 294 305 303 292 290 288 293 293 298 298 302 302 299 294 300 304 299 303 302 304 297 297 296 291 289 288 289 281 267 259 254 248 250 246 238 241 245
302 303 292 302 312 304 296 294 293 295 292 288 294 301 303 308 310 309 310 308 306 296 291 293 296 292 292 288 287 281 270 262 253 246 248 241 241 242
299 297 309 299 297 298 305 301 295 289 289 295 301 306 306 318 313 317 321 324 319 303 303 287 295 297 298 292 291 288 280 271 262 253 246 245 241 243
304 297 301 302 299 294 287 291 295 292 295 299 300 308 307 311 316 317 318 321 313 306 300 290 286 290 288 295 302 302 298 287 269 261 256 247 240 242
300 301 304 303 293 294 297 301 299 311 312 310 307 308 312 325 317 314 313 312 312 309 302 302 285 286 295 295 298 298 301 298 283 265 257 248 234 236
303 304 300 284 297 297 301 310 315 317 317 319 315 316 316 317 317 312 308 308 307 311 316 303 293 287 290 294 296 297 295 290 294 284 259 246 232 232
304 303 287 323 287 289 306 322 328 334 324 320 317 310 309 309 306 309 310 308 303 314 308 303 300 278 292 294 296 297 295 294 290 271 270 247 231 224
310 291 296 302 299 314 330 331 343 324 320 312 308 309 306 314 310 311 310 310 299 306 303 294 303 293 295 295 298 287 296 294 279 276 266 245 220 213
283 293 307 305 306 328 341 342 333 336 320 332 332 331 322 322 316 314 313 310 311 315 317 289 307 291 294 294 302 297 286 284 277 275 258 239 214 214
304 319 303 313 318 335 335 335 334 335 336 343 344 337 334 327 317 314 316 319 312 313 316 293 299 288 294 301 293 308 317 287 274 271 251 226 212 205
354 319 325 324 324 330 333 336 335 340 345 348 342 341 339 333 321 297 294 302 305 305 313 309 302 316 316 298 312 329 333 319 283 264 234 209 196 203
343 329 318 337 337 335 334 335 335 337 346 342 343 341 339 339 332 318 297 293 297 295 307 302 295 290 288 297 308 325 335 328 295 256 192 190 190 200
345 337 335 333 336 333 336 336 356 353 336 346 349 345 341 340 334 328 313 278 278 287 302 299 278 277 279 290 304 319 330 335 306 233 206 195 191 198
355 351 349 352 359 357 3 4 359 339 338 344 348 349 345 339 337 331 323 303 282 284 293 303 291 284 275 275 294 308 322 337 321 227 197 202 204 210
12 11 9 360 357 356 1 355 355 346 346 340 348 351 347 344 346 344 337 333 310 290 284 299 301 298 272 272 290 297 308 315 312 234 197 202 210 211
29 10 6 6 4 3 2 360 357 354 350 342 347 353 353 352 351 351 348 341 331 323 307 291 289 284 280 269 279 295 293 308 296 197 181 191 220 214
27 19 15 13 8 5 3 359 357 354 351 348 349 358 360 357 354 354 354 349 339 331 319 317 291 273 253 280 286 278 309 154 35 135 179 192 210 208
28 22 17 12 9 5 2 358 355 353 350 346 355 4 5 2 1 360 0 355 349 339 336 346 281 232 242 255 290 293 341 20 358 322 218 193 197 201
24 18 14 11 7 4 1 357 355 351 349 349 360 9 10 7 6 4 1 358 355 349 358 1 305 242 260 285 230 87 258 344 277 282 219 184 172 185
16 14 10 8 4 2 359 357 354 348 347 351 4 9 12 11 8 4 2 6 8 355 351 349 304 307 313 350 1 34 126 170 216 209 195 188 169 166
12 11 8 6 2 1 359 357 354 349 353 358 5 8 12 12 8 7 7 7 8 3 9 71 130 109 339 338 336 51 108 103 107 125 157 179 177 172
7 7 6 3 1 0 357 357 354 350 355 360 1 8 12 9 10 11 8 13 13 17 17 278 251 318 324 315 42 86 100 110 105 96 113 120 147 172
Wind_Speed_850mb
21 25 26 25 26 26 30 32 39 48 46 40 51 53 53 53 53 61 65 65 70 72 73 69 61 59 59 53 59 82 92 87 81 77 68 59 65 59
23 24 29 27 27 26 30 30 31 39 49 46 52 57 68 68 61 60 62 62 60 60 60 56 53 60 65 61 55 60 74 89 97 96 81 71 65 57
26 26 27 30 37 39 39 31 30 34 49 56 58 64 67 62 60 64 62 59 57 58 60 53 55 62 65 64 61 59 64 71 85 102 103 82 72 63
28 30 28 29 39 35 31 34 40 48 50 60 68 57 61 60 65 61 60 59 54 52 51 53 49 47 53 59 64 65 65 68 71 83 104 100 86 73
29 29 29 32 37 32 36 42 40 41 43 52 67 60 55 58 61 62 63 63 53 46 50 55 52 52 60 54 52 57 59 60 65 70 77 89 96 90
30 31 28 31 33 39 47 35 41 48 51 55 59 62 66 67 58 67 72 66 65 56 57 50 45 48 44 51 56 60 57 53 54 58 65 70 90 97
27 27 28 35 40 41 45 49 48 50 52 58 64 69 70 72 70 65 71 69 70 66 63 44 37 43 48 47 49 54 51 52 60 54 60 65 79 93
28 27 38 22 37 49 39 40 42 45 57 59 64 64 72 64 71 70 73 65 64 63 44 61 47 52 44 43 47 54 60 59 68 61 55 57 69 75
27 35 35 26 36 33 38 37 36 37 41 51 60 59 67 69 64 68 60 56 56 64 62 67 52 43 39 41 53 55 52 56 50 50 52 49 58 69
28 33 27 26 32 36 39 36 36 35 41 48 52 60 62 55 51 52 54 58 58 58 51 51 47 39 39 39 50 50 40 47 44 44 42 47 59 60
20 19 24 26 36 37 40 37 42 41 47 52 59 65 61 50 37 45 46 51 57 60 50 47 50 40 42 38 39 41 43 41 36 33 35 43 52 55
15 19 23 30 36 34 40 38 50 53 57 59 60 62 56 51 37 34 39 40 49 55 35 32 31 30 31 29 37 39 39 34 28 25 30 43 51 48
14 17 18 26 32 34 39 41 53 56 51 54 61 61 61 55 54 48 37 37 41 51 58 44 47 41 36 38 42 39 42 36 23 21 33 39 40 39
20 24 28 31 33 37 36 43 47 50 52 60 69 66 73 73 72 62 45 36 37 44 42 41 41 38 37 44 51 43 39 29 19 16 32 34 38 34
26 26 31 35 42 40 37 42 43 40 46 53 70 78 78 75 71 54 42 34 40 38 38 29 36 41 42 40 45 46 42 42 23 13 24 41 34 36
25 36 44 43 41 43 41 40 36 40 44 49 76 87 79 77 71 53 46 37 38 37 29 29 28 28 33 36 37 45 38 35 34 13 19 32 31 36
35 27 27 32 37 38 39 40 42 45 48 52 90 93 88 84 73 55 46 38 38 37 31 28 31 25 28 35 35 39 41 40 19 16 24 16 26 37
29 32 35 37 40 44 45 47 48 50 53 54 88 90 91 86 75 59 50 45 43 35 32 30 24 21 21 25 29 36 29 2 10 9 13 21 26 28
34 35 37 40 43 44 46 48 51 53 55 56 89 95 98 89 76 65 58 54 48 36 30 22 14 16 23 24 27 17 11 16 9 8 11 18 25 28
39 40 41 42 44 46 47 50 52 56 62 69 86 97 103 96 85 74 68 60 49 37 32 16 4 11 19 20 12 3 4 7 12 10 8 13 22 22
40 40 41 42 44 46 47 50 53 62 68 75 84 97 105 108 98 82 72 60 55 48 37 19 7 6 5 17 16 5 8 9 8 10 17 15 15 18
38 39 40 43 45 46 49 52 55 63 75 80 87 89 103 110 104 90 74 62 60 46 26 10 6 1 8 25 25 3 10 13 13 13 15 15 18 16
38 38 39 42 45 46 50 53 55 65 77 80 84 82 94 108 106 95 73 62 52 29 22 8 6 10 21 20 4 11 15 16 17 15 21 18 14 19
Wind_Direction_850mb
289 305 294 296 294 291 291 290 294 301 302 304 305 308 303 299 292 290 295 295 288 285 289 289 285 288 286 281 266 257 254 250 250 250 247 243 247 249
303 294 305 303 292 290 288 293 293 298 298 302 302 299 294 300 304 299 303 302 304 297 297 296 291 289 288 289 281 267 259 254 248 250 246 238 241 245
302 303 292 302 312 304 296 294 293 295 292 288 294 301 303 308 310 309 310 308 306 296 291 293 296 292 292 288 287 281 270 262 253 246 248 241 241 242
299 297 309 299 297 298 305 301 295 289 289 295 301 306 306 318 313 317 321 324 319 303 303 287 295 297 298 292 291 288 280 271 262 253 246 245 241 243
304 297 301 302 299 294 287 291 295 292 295 299 300 308 307 311 316 317 318 321 313 306 300 290 286 290 288 295 302 302 298 287 269 261 256 247 240 242
300 301 304 303 293 294 297 301 299 311 312 310 307 308 312 325 317 314 313 312 312 309 302 302 285 286 295 295 298 298 301 298 283 265 257 248 234 236
303 304 300 284 297 297 301 310 315 317 317 319 315 316 316 317 317 312 308 308 307 311 316 303 293 287 290 294 296 297 295 290 294 284 259 246 232 232
304 303 287 323 287 289 306 322 328 334 324 320 317 310 309 309 306 309 310 308 303 314 308 303 300 278 292 294 296 297 295 294 290 271 270 247 231 224
310 291 296 302 299 314 330 331 343 324 320 312 308 309 306 314 310 311 310 310 299 306 303 294 303 293 295 295 298 287 296 294 279 276 266 245 220 213
283 293 307 305 306 328 341 342 333 336 320 332 332 331 322 322 316 314 313 310 311 315 317 289 307 291 294 294 302 297 286 284 277 275 258 239 214 214
304 319 303 313 318 335 335 335 334 335 336 343 344 337 334 327 317 314 316 319 312 313 316 293 299 288 294 301 293 308 317 287 274 271 251 226 212 205
354 319 325 324 324 330 333 336 335 340 345 348 342 341 339 333 321 297 294 302 305 305 313 309 302 316 316 298 312 329 333 319 283 264 234 209 196 203
343 329 318 337 337 335 334 335 335 337 346 342 343 341 339 339 332 318 297 293 297 295 307 302 295 290 288 297 308 325 335 328 295 256 192 190 190 200
345 337 335 333 336 333 336 336 356 353 336 346 349 345 341 340 334 328 313 278 278 287 302 299 278 277 279 290 304 319 330 335 306 233 206 195 191 198
355 351 349 352 359 357 3 4 359 339 338 344 348 349 345 339 337 331 323 303 282 284 293 303 291 284 275 275 294 308 322 337 321 227 197 202 204 210
12 11 9 360 357 356 1 355 355 346 346 340 348 351 347 344 346 344 337 333 310 290 284 299 301 298 272 272 290 297 308 315 312 234 197 202 210 211
29 10 6 6 4 3 2 360 357 354 350 342 347 353 353 352 351 351 348 341 331 323 307 291 289 284 280 269 279 295 293 308 296 197 181 191 220 214
27 19 15 13 8 5 3 359 357 354 351 348 349 358 360 357 354 354 354 349 339 331 319 317 291 273 253 280 286 278 309 154 35 135 179 192 210 208
28 22 17 12 9 5 2 358 355 353 350 346 355 4 5 2 1 360 0 355 349 339 336 346 281 232 242 255 290 293 341 20 358 322 218 193 197 201
24 18 14 11 7 4 1 357 355 351 349 349 360 9 10 7 6 4 1 358 355 349 358 1 305 242 260 285 230 87 258 344 277 282 219 184 172 185
16 14 10 8 4 2 359 357 354 348 347 351 4 9 12 11 8 4 2 6 8 355 351 349 304 307 313 350 1 34 126 170 216 209 195 188 169 166
12 11 8 6 2 1 359 357 354 349 353 358 5 8 12 12 8 7 7 7 8 3 9 71 130 109 339 338 336 51 108 103 107 125 157 179 177 172
7 7 6 3 1 0 357 357 354 350 355 360 1 8 12 9 10 11 8 13 13 17 17 278 251 318 324 315 42 86 100 110 105 96 113 120 147 172